This demonstration page uses our WeatherBlox Daily Observations layout. Learn more.

Left ArrowRight Arrow

Hourly Observations for April 18, 2021

Temp ( °F °C ) Dew Point ( °F °C ) Humidity (%) Winds ( mph kmh ) Pressure ( in mb ) Visibility ( mi km ) Precip ( " mm )
12:15 am 00:15 Clear 36 2.4 34 1.1 91 91 WNW 5 7 30.22 1023 10 16.0934 0 0
12:35 am 00:35 Mostly Cloudy 36 2.3 34 1.2 93 93 W 6 9 30.22 1023 10 16.0934 0 0
12:55 am 00:55 Cloudy 37 3 35 1.5 90 90 W 5 7 30.22 1023 10 16.0934 0 0
1:15 am 01:15 Cloudy 37 3 34 1.2 88 88 W 7 11 30.21 1023 10 16.0934 0 0
1:35 am 01:35 Cloudy 37 2.6 34 1 89 89 WNW 5 7 30.21 1023 10 16.0934 0 0
1:55 am 01:55 Cloudy 37 2.5 34 1 90 90 WNW 5 7 30.21 1023 10 16.0934 0 0
2:15 am 02:15 Mostly Cloudy 36 2.1 33 0.6 90 90 WNW 3 6 30.21 1023 10 16.0934 0 0
2:35 am 02:35 Clear 36 2 33 0.5 90 90 W 5 7 30.21 1023 10 16.0934 0 0
2:55 am 02:55 Clear 35 1.6 32 0.2 91 91 W 5 7 30.21 1023 10 16.0934 0 0
3:15 am 03:15 Clear 34 1.3 32 0 91 91 WNW 5 7 30.2 1023 10 16.0934 0 0
3:35 am 03:35 Clear 34 1 32 -0.1 92 92 WNW 3 6 30.2 1023 10 16.0934 0 0
3:55 am 03:55 Clear 34 1 32 0 93 93 WNW 5 7 30.2 1023 10 16.0934 0 0
4:15 am 04:15 Clear 33 0.7 32 -0.1 94 94 W 3 6 30.2 1023 10 16.0934 0 0
4:35 am 04:35 Clear 33 0.7 32 -0.2 94 94 W 6 9 30.19 1022 10 16.0934 0 0
4:55 am 04:55 Clear 34 1.2 31 -0.3 90 90 WNW 5 7 30.18 1022 10 16.0934 0 0
5:15 am 05:15 Clear 33 0.5 31 -0.8 91 91 NW 5 7 30.19 1022 10 16.0934 0 0
5:35 am 05:35 Clear 32 0.2 31 -0.7 94 94 WNW 5 7 30.19 1022 10 16.0934 0 0
5:55 am 05:55 Clear 33 0.3 31 -0.8 92 92 WNW 5 7 30.18 1022 10 16.0934 0 0
6:15 am 06:15 Clear 32 0.2 31 -0.7 94 94 WNW 5 7 30.18 1022 10 16.0934 0 0
6:35 am 06:35 Clear 32 0.2 31 -0.7 94 94 WNW 5 7 30.18 1022 10 16.0934 0 0
6:55 am 06:55 Sunny 33 0.5 31 -0.8 91 91 WNW 6 9 30.18 1022 10 16.0934 0 0
7:15 am 07:15 Sunny 33 0.5 30 -1 90 90 WNW 6 9 30.18 1022 10 16.0934 0 0
7:35 am 07:35 Sunny 33 0.5 31 -0.7 92 92 WNW 6 9 30.18 1022 10 16.0934 0 0
7:55 am 07:55 Sunny 34 1.1 31 -0.5 89 89 WNW 6 9 30.17 1022 10 16.0934 0 0
8:15 am 08:15 Sunny 35 1.6 32 -0.1 89 89 WNW 3 6 30.17 1022 10 16.0934 0 0
8:35 am 08:35 Sunny 36 2.4 32 0.1 85 85 NW 3 6 30.16 1021 10 16.0934 0 0
8:55 am 08:55 Sunny 38 3.1 33 0.8 85 85 WNW 3 6 30.16 1021 10 16.0934 0 0
9:15 am 09:15 Sunny 40 4.4 35 1.6 82 82 NW 5 7 30.14 1021 10 16.0934 0 0
9:35 am 09:35 Sunny 43 6 37 2.8 80 80 NW 5 7 30.13 1020 10 16.0934 0 0
9:55 am 09:55 Sunny 44 6.8 38 3.1 78 78 Calm 30.11 1020 10 16.0934 0 0
10:15 am 10:15 Sunny 47 8.3 38 3.1 70 70 WNW 5 7 30.1 1019 10 16.0934 0 0
10:35 am 10:35 Sunny 49 9.2 36 2.4 63 63 W 5 7 30.09 1019 10 16.0934 0 0
10:55 am 10:55 Sunny 50 10.1 35 1.8 57 57 W 7 11 30.07 1018 10 16.0934 0 0
11:15 am 11:15 Sunny 52 11 33 0.3 48 48 WNW 8 13 30.06 1018 10 16.0934 0 0
11:35 am 11:35 Sunny 52 11.3 31 -0.7 44 44 WNW 3 6 30.06 1018 10 16.0934 0 0
11:55 am 11:55 Sunny 53 11.9 33 0.4 46 46 WNW 10 17 30.05 1017 10 16.0934 0 0
12:15 pm 12:15 Sunny 55 12.6 31 -0.4 41 41 WNW 8 13 30.03 1017 10 16.0934 0 0
12:35 pm 12:35 Sunny 56 13.3 34 0.9 43 43 WNW 13 20 30.01 1016 10 16.0934 0 0
12:55 pm 12:55 Sunny 56 13.3 33 0.5 42 42 WNW 12 19 30.01 1016 10 16.0934 0 0
1:15 pm 13:15 Sunny 56 13.6 33 0.3 40 40 NW 6 9 29.99 1016 10 16.0934 0 0
1:35 pm 13:35 Sunny 58 14.2 31 -0.4 37 37 NW 8 13 29.99 1015 10 16.0934 0 0
1:55 pm 13:55 Sunny 58 14.6 30 -1.1 34 34 WNW 12 19 29.97 1015 10 16.0934 0 0
2:15 pm 14:15 Partly Cloudy 60 15.3 32 0.1 36 36 NNW 7 11 29.97 1015 10 16.0934 0 0
2:35 pm 14:35 Partly Cloudy 60 15.3 31 -0.4 34 34 NW 15 24 29.97 1015 10 16.0934 0 0
2:55 pm 14:55 Sunny 61 15.9 31 -0.4 33 33 NW 13 20 29.95 1014 10 16.0934 0 0
3:15 pm 15:15 Sunny 61 16 31 -0.5 33 33 NW 10 17 29.95 1014 10 16.0934 0 0
3:35 pm 15:35 Sunny 61 16 31 -0.6 32 32 NW 5 7 29.94 1014 10 16.0934 0 0
3:55 pm 15:55 Sunny 62 16.7 32 -0.2 32 32 NNW 12 19 29.92 1013 10 16.0934 0 0
4:15 pm 16:15 Sunny 62 16.8 31 -0.5 31 31 WNW 13 20 29.91 1013 10 16.0934 0 0
4:35 pm 16:35 Sunny 62 16.8 31 -0.5 31 31 NW 9 15 29.9 1013 10 16.0934 0 0
4:55 pm 16:55 Sunny 63 17 32 -0.2 31 31 NNW 9 15 29.9 1013 10 16.0934 0 0
5:15 pm 17:15 Sunny 63 17.4 32 -0.1 31 31 N 8 13 29.89 1012 10 16.0934 0 0
5:35 pm 17:35 Sunny 64 17.5 32 0 31 31 NNW 5 7 29.89 1012 10 16.0934 0 0
5:55 pm 17:55 Sunny 64 17.6 31 -0.6 29 29 N 7 11 29.88 1012 10 16.0934 0 0
6:15 pm 18:15 Sunny 64 17.8 31 -0.6 29 29 NNW 5 7 29.88 1012 10 16.0934 0 0
6:35 pm 18:35 Sunny 64 17.7 30 -1 28 28 NW 8 13 29.88 1012 10 16.0934 0 0
6:55 pm 18:55 Sunny 64 17.5 30 -1 29 29 NW 6 9 29.88 1012 10 16.0934 0 0
7:15 pm 19:15 Sunny 63 17.2 29 -1.5 28 28 Calm 29.87 1012 10 16.0934 0 0
7:35 pm 19:35 Sunny 62 16.9 29 -1.4 29 29 Calm 29.87 1012 10 16.0934 0 0
7:55 pm 19:55 Sunny 61 16.1 32 -0.2 33 33 Calm 29.88 1012 10 16.0934 0 0
8:15 pm 20:15 Sunny 59 14.8 32 -0.1 36 36 Calm 29.89 1012 10 16.0934 0 0
8:35 pm 20:35 Clear 58 14.4 33 0.4 39 39 S 3 6 29.89 1012 10 16.0934 0 0
8:55 pm 20:55 Clear 57 13.9 31 -0.5 37 37 SSW 6 9 29.9 1012 10 16.0934 0 0
9:15 pm 21:15 Clear 54 12.2 33 0.8 46 46 SSW 7 11 29.91 1013 10 16.0934 0 0
9:35 pm 21:35 Clear 53 11.4 33 0.6 48 48 SSW 7 11 29.92 1013 10 16.0934 0 0
9:55 pm 21:55 Clear 52 11.3 32 0 46 46 SSW 7 11 29.93 1014 10 16.0934 0 0
10:15 pm 22:15 Clear 51 10.5 32 0.1 49 49 SW 7 11 29.94 1014 10 16.0934 0 0
10:35 pm 22:35 Clear 50 9.8 32 0.1 51 51 SSW 7 11 29.94 1014 10 16.0934 0 0
10:55 pm 22:55 Clear 50 9.9 32 -0.2 50 50 SSW 7 11 29.94 1014 10 16.0934 0 0
11:15 pm 23:15 Clear 49 9.3 32 0 53 53 SSW 7 11 29.95 1014 10 16.0934 0 0
11:35 pm 23:35 Clear 48 9 32 0 54 54 SSW 7 11 29.94 1014 10 16.0934 0 0
11:55 pm 23:55 Partly Cloudy 48 9.1 32 0 53 53 SSW 8 13 29.94 1014 10 16.0934 0 0

Powered by AerisWeather